Flag for Canada Weather past 2 weeks in Toronto, Ontario, Canada

Now
59 °F

Fog.


Feels Like: 58 °F
Forecast: 58 / 65 °F
Wind: 6 mph from Northeast

Location: Toronto Pearson International Airport

Current Time: Oct 1, 2014 at 8:37:19 AM

Latest Report: Oct 1, 2014 at 8:00 AM


Visibility: 6 mi

Pressure: 30.07 "Hg

Humidity: 88%

Dew point: 55 °F

Location of TorontoLocation

Historic Weather in Toronto — Graph

°F

Toronto temperature yesterday

Maximum temperature yesterday: 66 °F (at 11:00 AM)
Minimum temperature yesterday: 61 °F (at 2:00 AM)
Average temperature yesterday: 63 °F

Past Weeks' High & Low Weather Summary

 TemperatureHumidityPressure
High77 °F (Sep 20, 3:00 PM)94% (Sep 20, 7:00 AM)30.51 "Hg (Sep 20, 7:00 AM)
Low41 °F (Sep 19, 2:00 AM)43% (Sep 17, 4:00 PM)29.53 "Hg (Sep 21, 9:54 AM)
Average61 °F71%30.11 "Hg
* Reported Sep 16 7:00 AM — Oct 1 7:00 AM, Toronto, Weather by CustomWeather, © 2014

Note: Actual official high and low records may vary slightly from our data, if they occured in-between our weather recording intervals... More about our weather records

Advertising

Toronto weather history for previous 24 hours

 ConditionsComfort  
Time TempWeatherWind HumidityBarometerVisibility
7:00 AM
Oct 1
59 °FOvercast.8 mph82%30.05 "Hg10 mi
6:00 AM59 °FOvercast.7 mph82%30.04 "Hg12 mi
5:00 AM59 °FOvercast.8 mph82%30.04 "Hg12 mi
4:00 AM59 °FOvercast.10 mph82%30.03 "Hg15 mi
3:00 AM59 °FOvercast.10 mph82%30.03 "Hg12 mi
2:00 AM61 °FOvercast.12 mph83%30.03 "Hg10 mi
1:00 AM61 °FDrizzle. Fog.12 mph88%30.02 "Hg6 mi
12:00 AM63 °FMostly cloudy.8 mph83%30.01 "Hg10 mi
11:00 PM
Sep 30
63 °FOvercast.6 mph83%30.00 "Hg10 mi
10:00 PM63 °FMostly cloudy.2 mph83%29.98 "Hg6 mi
9:00 PM61 °FFog.5 mph94%29.98 "Hg4 mi
8:00 PM61 °FFog.5 mph94%29.95 "Hg4 mi
7:00 PM63 °FFog.7 mph88%29.95 "Hg4 mi
6:00 PM64 °FPartly sunny.5 mph83%29.93 "Hg8 mi
5:00 PM63 °FFog.2 mph88%29.92 "Hg6 mi
4:00 PM63 °FFog.3 mph88%29.92 "Hg6 mi
3:00 PM64 °FMostly cloudy.7 mph83%29.92 "Hg8 mi
2:00 PM64 °FMostly cloudy.13 mph83%29.91 "Hg8 mi
1:00 PM66 °FMostly cloudy.9 mph83%29.91 "Hg6 mi
11:00 AM66 °FBroken clouds.2 mph78%29.88 "Hg8 mi
10:00 AM64 °FFog.5 mph88%29.89 "Hg4 mi
9:00 AM63 °FFog.7 mph88%29.87 "Hg4 mi
8:00 AM63 °FFog.2 mph88%29.88 "Hg2 mi
Weather by CustomWeather, © 2014

See weather overviewHow to use our weather pages